Hourly Data Report for April 30, 2012

HALIFAX STANFIELD INT'L A
NOVA SCOTIA

44°52'48.060" N
63°30'00.050" W
145.40 m
8202250
71395
YHZ

Download Data

Hourly Data (April 2012)
Hourly Data Report for April 30, 2012
TIME
LST
Temp Definition
°C
Dew Point Definition
°C
Rel Hum Definition
%
Precip. Amount Definition
mm

Wind Dir Definition
10's deg

Wind Spd Definition
km/h
Visibility Definition
km
Stn Press Definition
kPa
Hmdx Definition


Wind Chill Definition


Weather Definition


00:00 0.4 -4.5 70   33 15 24.1 99.75     Clear
01:00 -1.1 -4.4 78   35 13 24.1 99.79   -5 Clear
02:00 -1.8 -4.6 81   36 7 24.1 99.81   -4 Clear
03:00 -1.7 -5.0 78   33 7 24.1 99.85   -4 Clear
04:00 -2.0 -5.3 78   33 7 24.1 99.92   -5 Mainly Clear
05:00 -1.4 -4.5 79   35 6 24.1 100.00   -4 Mostly Cloudy
06:00 -1.1 -4.6 77   31 9 24.1 100.07   -4 Mostly Cloudy
07:00 -0.2 -6.5 62   32 15 24.1 100.17   -5 Mostly Cloudy
08:00 0.9 -7.9 52   32 19 24.1 100.20     Mainly Clear
09:00 3.7 -6.6 47   27 19 24.1 100.19     Mainly Clear
10:00 4.4 -6.7 44   33 17 24.1 100.20     Mainly Clear
11:00 5.5 -6.8 41   34 26 24.1 100.19     Mainly Clear
12:00 5.8 -5.3 45   34 24 24.1 100.17     Mainly Clear
13:00 5.5 -5.5 45   35 19 24.1 100.21     Cloudy
14:00 5.8 -5.0 46   34 20 24.1 100.26     Mostly Cloudy
15:00 5.4 -5.3 46   34 20 24.1 100.33     Cloudy
16:00 5.4 -4.9 47   33 22 24.1 100.40     Cloudy
17:00 5.2 -4.6 49   33 24 24.1 100.49     Cloudy
18:00 4.7 -3.6 55   1 15 24.1 100.56     Cloudy
19:00 4.2 -3.5 57   1 6 24.1 100.57     Cloudy
20:00 2.6 -3.5 64   5 15 24.1 100.61     Mostly Cloudy
21:00 0.9 -4.2 69   13 6 24.1 100.65     Mainly Clear
22:00 0.9 -4.1 69   14 7 24.1 100.64     Clear
23:00 -0.5 -4.5 74   21 9 24.1 100.71   -4 Mainly Clear

Notes on Data Quality.

Legend

  • E = Estimated
  • M = Missing
  • NA = Not Available*
  • [empty] = Indicates an unobserved value
Date modified: